Weather History for MMLP - August, 2013

Change the Weather History Date:

Friday, August 30, 2013

  Actual Average Record
Temperature  
Mean Temperature 85 °F -  
Max Temperature 95 °F 94 °F 104 °F (2002)
Min Temperature 74 °F 74 °F 74 °F (2013)
Cooling Degree Days 20    
Growing Degree Days 35 (Base 50)    
Moisture  
Dew Point 71 °F    
Average Humidity 65    
Maximum Humidity 89    
Minimum Humidity 40    
Precipitation  
Precipitation 0.00 in - - ()
Sea Level Pressure  
Sea Level Pressure 29.95 in    
Wind  
Wind Speed 4 mph ()    
Max Wind Speed 14 mph    
Max Gust Speed -    
Visibility 10.3 miles    
Events      
Averages and records for this station are not official NWS values.
T = Trace of Precipitation, MM = Missing Value Source: Averaged Metar Reports

Daily Weather History Graph

Daily Weather History Graph

Search for Another Location

Airport or City:

Trip Planner

Search our weather history database for the weather conditions in past years. The results will help you decide how hot, cold, wet, or windy it might be!

Date:

Astronomy

Aug. 30, 2013 Rise Set
Actual Time 7:02 AM MDT 7:41 PM MDT
Civil Twilight 6:39 AM MDT 8:04 PM MDT
Nautical Twilight 6:12 AM MDT 8:31 PM MDT
Astronomical Twilight 5:44 AM MDT 8:58 PM MDT
Moon 2:03 AM MDT (8/30) 3:40 PM MDT (8/30)
Length of Visible Light 13h 24m
Length of Day
12h 38m
Waning Crescent, 28% of the Moon is Illuminated
Aug 30
Waning Crescent
Sep 5
New
Sep 12
First Quarter
Sep 19
Full
Sep 26
Last Quarter

Hourly Weather History & Observations

Time (MDT) Temp. Heat Index Dew Point Humidity Pressure Visibility Wind Dir Wind Speed Gust Speed Precip Events Conditions
2:45 AM 77 °F - 72 °F 82% 29.93 in 2 mi South 2.2 mph - -   Mostly Cloudy
5:50 AM 77 °F - 72 °F 79% 29.93 in 2 mi South 2.2 mph - -   Clear
6:03 AM 73.4 °F - 69.8 °F 88% 30.00 in 10.0 mi South 3.5 mph - N/A   Clear
6:41 AM 73.4 °F - 69.8 °F 88% 29.95 in 10.0 mi Calm Calm - N/A   Partly Cloudy
7:42 AM 73.4 °F - 69.8 °F 88% 29.97 in 10.0 mi Calm Calm - N/A   Scattered Clouds
8:43 AM 75.2 °F - 71.6 °F 89% 30.04 in 10.0 mi Calm Calm - N/A   Scattered Clouds
8:50 AM 82 °F - 72 °F 65% 29.97 in 12 mi NE 2.2 mph - -   Partly Cloudy
9:47 AM 82.4 °F 86.3 °F 69.8 °F 66% 29.97 in 10.0 mi NNW 5.8 mph - N/A   Scattered Clouds
10:41 AM 82.4 °F 86.3 °F 69.8 °F 66% 29.95 in 12.0 mi NNW 8.1 mph - N/A   Mostly Cloudy
11:41 AM 82.4 °F 87.2 °F 71.6 °F 70% 30.00 in 12.0 mi NNW 10.4 mph - N/A   Mostly Cloudy
11:50 AM 84 °F - 73 °F 63% 29.92 in 19 mi NW 6.7 mph - -   Mostly Cloudy
12:40 PM 82.4 °F 87.2 °F 71.6 °F 70% 29.95 in 12.0 mi North 3.5 mph - N/A   Mostly Cloudy
1:40 PM 86.0 °F 93.4 °F 73.4 °F 66% 29.94 in 12.0 mi NW 5.8 mph - N/A   Mostly Cloudy
2:40 PM 87.8 °F 93.8 °F 71.6 °F 58% 29.97 in 12.0 mi NNW 9.2 mph - N/A   Scattered Clouds
2:50 PM 92 °F - 75 °F 49% 29.89 in 19 mi NW 6.7 mph - -   Scattered Clouds
3:48 PM 89.6 °F 93.4 °F 68.0 °F 49% 29.88 in 12.0 mi North 10.4 mph - N/A   Partly Cloudy
4:43 PM 89.6 °F 93.4 °F 68.0 °F 49% 29.87 in 10.0 mi North 11.5 mph - N/A   Mostly Cloudy
5:50 PM 96 °F - 74 °F 40% 29.86 in 19 mi WNW 4.5 mph - -   Scattered Clouds
5:51 PM 89.6 °F 93.4 °F 68.0 °F 49% 29.96 in 10.0 mi SW 11.5 mph - N/A   Mostly Cloudy
6:48 PM 89.6 °F 93.4 °F 68.0 °F 49% 29.87 in 10.0 mi SW 13.8 mph - N/A   Scattered Clouds
8:00 PM 84.2 °F 87.3 °F 68.0 °F 58% 29.91 in 10.0 mi SW 9.2 mph - N/A   Scattered Clouds
8:50 PM 85 °F - 72 °F 56% 29.92 in 2 mi SSW 6.7 mph - -   Scattered Clouds
9:08 PM 84.2 °F 87.3 °F 68.0 °F 58% 30.06 in 10.0 mi Calm Calm - N/A   Scattered Clouds
9:49 PM 82.4 °F 86.3 °F 69.8 °F 66% 29.97 in 10.0 mi South 5.8 mph - N/A   Scattered Clouds
10:51 PM 80.6 °F 84.6 °F 71.6 °F 74% 29.98 in 10.0 mi South 6.9 mph - N/A   Scattered Clouds
11:50 PM 82 °F - 73 °F 67% 29.97 in 2 mi South 6.7 mph - -